Daily Data: Gold Canyon

   
2/19/18
Time         Wind Dir   Wind Spd  Wind Gust   Humidity       Temp  Dew Point   Barom SL  DailyRain   HourRain   RainRate
                            mph        mph          %         F         F         in         in         in      in/hr
12:00am           122          0          4         63       60.6       48.0      29.72       0.00       0.00      0.000
12:05am           123          0          5         63       60.4       47.8      29.72       0.00       0.00      0.000
12:10am           133          0          5         63       60.4       47.8      29.72       0.00       0.00      0.000
12:15am           103          0          5         64       60.2       48.0      29.72       0.00       0.00      0.000
12:20am           190          0          0         64       60.2       48.0      29.72       0.00       0.00      0.000
12:25am           188          0          0         64       60.1       47.9      29.72       0.00       0.00      0.000
12:30am           146          5          7         64       60.0       47.8      29.72       0.00       0.00      0.000
12:35am           135          2          8         65       59.9       48.1      29.72       0.00       0.00      0.000
12:40am           154          0          8         65       59.9       48.1      29.71       0.00       0.00      0.000
12:45am           168          4          8         65       59.8       48.0      29.71       0.00       0.00      0.000
12:50am           142          0          8         66       59.8       48.4      29.71       0.00       0.00      0.000
12:55am           132          0         13         66       59.7       48.3      29.71       0.00       0.00      0.000
1:00am            149          0         13         66       59.7       48.3      29.71       0.00       0.00      0.000
1:05am            156          0          5         66       59.6       48.2      29.71       0.00       0.00      0.000
1:10am            145          0          7         67       59.5       48.5      29.70       0.00       0.00      0.000
1:15am            133          0          7         67       59.3       48.4      29.70       0.00       0.00      0.000
1:20am            129          0          6         68       59.1       48.6      29.70       0.00       0.00      0.000
1:25am            129          2          6         68       59.0       48.5      29.70       0.00       0.00      0.000
1:30am            126          0          7         68       58.9       48.4      29.70       0.00       0.00      0.000
1:35am            112          0          7         69       58.8       48.7      29.70       0.00       0.00      0.000
1:40am            124          0          9         69       58.7       48.6      29.70       0.00       0.00      0.000
1:45am            101          0          9         70       58.8       49.1      29.70       0.00       0.00      0.000
1:50am            133          1          8         70       58.9       49.1      29.70       0.00       0.00      0.000
1:55am            116          1          9         70       58.9       49.1      29.70       0.00       0.00      0.000
2:00am            137          0          9         70       58.9       49.1      29.70       0.00       0.00      0.000
2:05am            136          0          8         70       58.8       49.1      29.70       0.00       0.00      0.000
2:10am            116          0          8         71       58.7       49.3      29.69       0.00       0.00      0.000
2:15am            122          1          9         71       58.6       49.2      29.69       0.00       0.00      0.000
2:20am            111          6         11         71       58.5       49.1      29.69       0.00       0.00      0.000
2:25am            145          1         11         71       58.5       49.1      29.69       0.00       0.00      0.000
2:30am            128          0         11         71       58.6       49.2      29.69       0.00       0.00      0.000
2:35am            162          0          9         72       58.6       49.6      29.69       0.00       0.00      0.000
2:40am             95          1          9         72       58.6       49.6      29.69       0.00       0.00      0.000
2:45am            149          4         10         72       58.6       49.6      29.69       0.00       0.00      0.000
2:50am            118          3         10         72       58.6       49.6      29.69       0.00       0.00      0.000
2:55am            112          4         10         72       58.5       49.5      29.69       0.00       0.00      0.000
3:00am            121          0         10         72       58.4       49.4      29.68       0.00       0.00      0.000
3:05am            149          0          9         73       58.3       49.7      29.68       0.00       0.00      0.000
3:10am            131          2          9         73       58.2       49.6      29.68       0.00       0.00      0.000
3:15am            131          0          9         73       58.1       49.5      29.68       0.00       0.00      0.000
3:20am            119          5          8         74       58.1       49.9      29.68       0.00       0.00      0.000
3:25am            150          2          8         74       58.1       49.9      29.68       0.00       0.00      0.000
3:30am            125          3         10         75       58.1       50.2      29.67       0.00       0.00      0.000
3:35am            106          0         10         75       58.1       50.2      29.67       0.00       0.00      0.000
3:40am            144          9         10         75       58.1       50.2      29.67       0.00       0.00      0.000
3:45am            161          4         11         75       58.1       50.2      29.67       0.00       0.00      0.000
3:50am            156         10         11         76       58.0       50.5      29.67       0.00       0.00      0.000
3:55am            168          7         14         76       57.9       50.4      29.67       0.00       0.00      0.000
4:00am            147          2         14         77       57.7       50.5      29.67       0.00       0.00      0.000
4:05am            160          7         13         77       57.6       50.5      29.67       0.00       0.00      0.000
4:10am            148          8         13         78       57.5       50.7      29.67       0.00       0.00      0.000
4:15am            135          4         13         78       57.3       50.5      29.66       0.00       0.00      0.000
4:20am            147          4         12         79       57.2       50.8      29.66       0.00       0.00      0.000
4:25am            138          3         12         79       57.2       50.8      29.66       0.00       0.00      0.000
4:30am            178          6         12         79       57.3       50.9      29.66       0.00       0.00      0.000
4:35am            147         10         16         79       57.4       50.9      29.67       0.00       0.00      0.000
4:40am            147          5         16         79       57.6       51.1      29.67       0.00       0.00      0.000
4:45am            143          3         16         79       57.6       51.1      29.67       0.00       0.00      0.000
4:50am            154          4         10         79       57.5       51.0      29.67       0.00       0.00      0.000
4:55am            162          5         10         79       57.4       50.9      29.67       0.00       0.00      0.000
5:00am            154          8         12         79       57.2       50.8      29.66       0.00       0.00      0.000
5:05am            167          5         12         79       57.0       50.6      29.66       0.00       0.00      0.000
5:10am            127          5         12         80       56.8       50.7      29.66       0.00       0.00      0.000
5:15am            154          2         12         80       56.6       50.5      29.66       0.00       0.00      0.000
5:20am            154          9         14         80       56.6       50.5      29.66       0.00       0.00      0.000
5:25am            138          3         14         80       56.5       50.4      29.66       0.00       0.00      0.000
5:30am            163          9         14         80       56.4       50.3      29.66       0.00       0.00      0.000
5:35am            143          9         11         80       56.2       50.1      29.67       0.00       0.00      0.000
5:40am            135          3         11         81       56.0       50.3      29.67       0.00       0.00      0.000
5:45am            141          2         11         81       55.9       50.2      29.67       0.00       0.00      0.000
5:50am            127          4         10         82       55.7       50.3      29.67       0.00       0.00      0.000
5:55am            142          6         10         82       55.8       50.4      29.67       0.00       0.00      0.000
6:00am            131          4         10         81       55.9       50.2      29.67       0.00       0.00      0.000
6:05am            143          9         12         81       55.9       50.2      29.66       0.00       0.00      0.000
6:10am            156          8         13         81       56.1       50.4      29.66       0.00       0.00      0.000
6:15am            140          7         15         80       56.1       50.0      29.66       0.00       0.00      0.000
6:20am            137          7         13         80       56.1       50.0      29.65       0.00       0.00      0.000
6:25am            137          7         13         80       56.0       49.9      29.66       0.00       0.00      0.000
6:30am            153          6         13         80       56.0       49.9      29.66       0.00       0.00      0.000
6:35am            150          4          9         80       56.0       49.9      29.66       0.00       0.00      0.000
6:40am            121          4         13         79       56.1       49.7      29.66       0.00       0.00      0.000
6:45am            116          6         13         79       56.2       49.8      29.66       0.00       0.00      0.000
6:50am            135          9         12         79       56.3       49.9      29.66       0.00       0.00      0.000
6:55am            152         10         12         78       56.4       49.6      29.66       0.00       0.00      0.000
7:00am            144          9         12         78       56.5       49.7      29.67       0.00       0.00      0.000
7:05am            181          8         11         78       56.5       49.7      29.67       0.00       0.00      0.000
7:10am            141          5         15         77       56.6       49.5      29.67       0.00       0.00      0.000
7:15am            156         10         15         77       56.6       49.5      29.67       0.00       0.00      0.000
7:20am            148         16         16         77       56.7       49.6      29.67       0.00       0.00      0.000
7:25am            149          8         17         76       56.7       49.2      29.67       0.00       0.00      0.000
7:30am            147         12         17         77       56.7       49.6      29.67       0.00       0.00      0.000
7:35am            156          7         12         77       56.7       49.6      29.67       0.00       0.00      0.000
7:40am            160          6         13         77       56.7       49.6      29.67       0.00       0.00      0.000
7:45am            182          8         15         77       56.6       49.5      29.67       0.00       0.00      0.000
7:50am            164         15         16         77       56.6       49.5      29.67       0.00       0.00      0.000
7:55am            153         10         16         76       56.6       49.1      29.67       0.00       0.00      0.000
8:00am            144          6         16         76       56.7       49.2      29.68       0.00       0.00      0.000
8:05am            158          6         15         75       56.7       48.9      29.68       0.00       0.00      0.000
8:10am            146          5         15         74       56.8       48.6      29.67       0.00       0.00      0.000
8:15am            135         10         20         73       56.8       48.3      29.68       0.00       0.00      0.000
8:20am            169         10         17         72       56.9       48.0      29.68       0.00       0.00      0.000
8:25am            143          0         17         72       56.9       48.0      29.68       0.00       0.00      0.000
8:30am            183          7         17         71       56.9       47.6      29.68       0.00       0.00      0.000
8:35am            181          0         16         71       57.2       47.9      29.68       0.00       0.00      0.000
8:40am            197          1         16         70       57.5       47.8      29.68       0.00       0.00      0.000
8:45am            131          0         16         70       57.4       47.7      29.69       0.00       0.00      0.000
8:50am            104          7         16         71       57.2       47.9      29.69       0.00       0.00      0.000
8:55am            151          0         16         71       57.2       47.9      29.69       0.00       0.00      0.000
9:00am            155          0         16         72       57.2       48.3      29.69       0.00       0.00      0.000
9:05am            148          9         12         71       57.2       47.9      29.68       0.00       0.00      0.000
9:10am            172          0         12         71       57.3       48.0      29.68       0.00       0.00      0.000
9:15am            156          8         13         70       57.5       47.8      29.68       0.00       0.00      0.000
9:20am            179          0         13         69       57.5       47.4      29.68       0.00       0.00      0.000
9:25am            189          0         15         69       57.7       47.6      29.68       0.00       0.00      0.000
9:30am            156          6         15         67       57.9       47.0      29.68       0.00       0.00      0.000
9:35am            219          4         15         68       58.0       47.5      29.68       0.00       0.00      0.000
9:40am            212         13         18         66       58.3       47.0      29.68       0.00       0.00      0.000
9:45am            180          6         18         65       58.6       46.9      29.68       0.00       0.00      0.000
9:50am            195         18         18         64       58.7       46.6      29.68       0.00       0.00      0.000
9:55am            213          9         19         63       58.9       46.3      29.67       0.00       0.00      0.000
10:00am           227          0         19         63       59.1       46.5      29.67       0.00       0.00      0.000
10:05am           185          0         21         62       59.7       46.7      29.67       0.00       0.00      0.000
10:10am           166          0         23         62       59.6       46.6      29.67       0.00       0.00      0.000
10:15am           220          9         23         62       59.3       46.3      29.67       0.00       0.00      0.000
10:20am           187          2         17         62       59.5       46.5      29.67       0.00       0.00      0.000
10:25am           222          4         18         60       60.1       46.2      29.67       0.00       0.00      0.000
10:30am           212         10         18         59       60.9       46.5      29.67       0.00       0.00      0.000
10:35am           216          3         20         57       61.0       45.7      29.66       0.00       0.00      0.000
10:40am           238          0         20         59       60.8       46.4      29.67       0.00       0.00      0.000
10:45am           202          4         20         57       61.3       46.0      29.66       0.00       0.00      0.000
10:50am           179          0         23         56       62.1       46.2      29.66       0.00       0.00      0.000
10:55am           201          9         23         56       61.4       45.6      29.66       0.00       0.00      0.000
11:00am           171         20         24         56       60.9       45.1      29.66       0.00       0.00      0.000
11:05am           179          3         20         57       60.9       45.6      29.66       0.00       0.00      0.000
11:10am           164          1         20         57       61.0       45.7      29.66       0.00       0.00      0.000
11:15am           149          1         20         56       61.1       45.3      29.66       0.00       0.00      0.000
11:20am           166          0         20         55       61.9       45.6      29.65       0.00       0.00      0.000
11:25am           210          5         21         54       62.4       45.6      29.65       0.00       0.00      0.000
11:30am           188          1         21         52       62.7       44.8      29.65       0.00       0.00      0.000
11:35am           214          6         17         51       62.6       44.2      29.65       0.00       0.00      0.000
11:40am           168          7         17         50       62.8       43.9      29.64       0.00       0.00      0.000
11:45am           210          0         17         50       62.8       43.9      29.64       0.00       0.00      0.000
11:50am           219          0         15         51       62.5       44.1      29.64       0.00       0.00      0.000
11:55am           213          9         19         50       62.8       43.9      29.64       0.00       0.00      0.000
12:00pm           208          0         24         49       63.1       43.7      29.64       0.00       0.00      0.000
12:05pm           183          0         23         47       63.8       43.2      29.64       0.00       0.00      0.000
12:10pm           202         10         23         49       64.1       44.6      29.63       0.00       0.00      0.000
12:15pm           235         12         23         49       63.6       44.1      29.63       0.00       0.00      0.000
12:20pm           208         12         23         45       64.6       42.8      29.62       0.00       0.00      0.000
12:25pm           180          7         23         46       64.1       42.9      29.62       0.00       0.00      0.000
12:30pm           214          1         23         46       63.9       42.7      29.62       0.00       0.00      0.000
12:35pm           221         14         24         46       63.5       42.4      29.61       0.00       0.00      0.000
12:40pm           198         11         24         45       64.3       42.5      29.61       0.00       0.00      0.000
12:45pm           220         10         24         45       64.5       42.7      29.61       0.00       0.00      0.000
12:50pm           212          4         20         43       63.9       41.0      29.61       0.00       0.00      0.000
12:55pm           237          1         20         45       63.2       41.5      29.61       0.00       0.00      0.000
1:00pm            199         10         20         46       63.1       42.0      29.61       0.00       0.00      0.000
1:05pm            191          0         19         46       63.3       42.2      29.60       0.00       0.00      0.000
1:10pm            226          2         20         44       63.2       40.9      29.60       0.00       0.00      0.000
1:15pm            223          0         20         46       63.0       41.9      29.59       0.00       0.00      0.000
1:20pm            242          1         15         46       63.1       42.0      29.59       0.00       0.00      0.000
1:25pm            208          0         19         49       63.0       43.6      29.60       0.00       0.00      0.000
1:30pm            257          0         19         49       62.3       42.9      29.59       0.00       0.00      0.000
1:35pm            205          0         14         55       61.8       45.5      29.59       0.00       0.00      0.000
1:40pm            237         20         27         57       60.0       44.7      29.60       0.00       0.00      0.000
1:45pm            214         16         27         66       57.6       46.3      29.60       0.01       0.01      0.000
1:50pm            240         11         21         71       56.6       47.3      29.60       0.04       0.04      0.520
1:55pm            249          4         24         73       56.4       47.9      29.59       0.04       0.04      0.100
2:00pm            223          9         24         74       56.4       48.2      29.59       0.04       0.04      0.050
2:05pm            359          4         13         72       56.7       47.8      29.60       0.06       0.06      0.710
2:10pm            208          4         15         76       56.9       49.4      29.59       0.07       0.07      0.190
2:15pm            213          0         15         76       56.9       49.4      29.58       0.07       0.07      0.070
2:20pm            193         10         12         75       57.1       49.3      29.58       0.08       0.08      0.050
2:25pm            212          5         21         73       57.5       48.9      29.58       0.08       0.08      0.050
2:30pm            197          4         21         71       57.5       48.2      29.58       0.08       0.08      0.050
2:35pm            214         10         16         71       57.2       47.9      29.58       0.08       0.08      0.040
2:40pm            191          5         18         70       57.4       47.7      29.58       0.08       0.08      0.000
2:45pm            204          6         24         68       57.6       47.1      29.59       0.08       0.08      0.000
2:50pm            215          4         16         67       57.1       46.3      29.59       0.08       0.07      0.000
2:55pm            210         13         16         69       57.3       47.2      29.58       0.08       0.07      0.000
3:00pm            237         10         16         71       57.3       48.0      29.59       0.08       0.07      0.000
3:05pm            218          9         16         71       57.1       47.8      29.59       0.08       0.04      0.000
3:10pm            163         10         18         68       57.1       46.7      29.59       0.08       0.04      0.000
3:15pm            219          8         18         69       57.0       46.9      29.59       0.08       0.04      0.000
3:20pm            220         10         20         70       57.1       47.4      29.59       0.08       0.01      0.000
3:25pm            262          4         20         61       57.3       44.0      29.59       0.08       0.01      0.000
3:30pm            226          3         20         57       58.0       42.9      29.59       0.08       0.01      0.000
3:35pm            272          0         17         55       58.1       42.0      29.60       0.08       0.00      0.000
3:40pm            272          6         17         54       57.8       41.3      29.60       0.08       0.00      0.000
3:45pm            283         19         19         52       57.6       40.1      29.60       0.08       0.00      0.000
3:50pm            280         14         21         50       58.0       39.5      29.59       0.08       0.00      0.000
3:55pm            266          6         27         50       57.6       39.1      29.60       0.08       0.00      0.000
4:00pm            288          3         27         48       57.2       37.7      29.60       0.08       0.00      0.000
4:05pm            276          9         16         47       57.0       37.0      29.60       0.08       0.00      0.000
4:10pm            271          0         16         47       56.7       36.7      29.61       0.08       0.00      0.000
4:15pm            277         12         25         46       56.4       35.9      29.61       0.08       0.00      0.000
4:20pm            265         10         20         46       56.0       35.5      29.62       0.08       0.00      0.000
4:25pm            280          1         20         45       55.8       34.8      29.62       0.08       0.00      0.000
4:30pm            334          3         20         45       55.7       34.7      29.62       0.08       0.00      0.000
4:35pm            276         17         17         44       55.7       34.1      29.62       0.08       0.00      0.000
4:40pm            286         12         18         44       55.7       34.1      29.63       0.08       0.00      0.000
4:45pm            273          0         18         44       55.8       34.2      29.63       0.08       0.00      0.000
4:50pm            301          0          8         44       55.7       34.1      29.63       0.08       0.00      0.000
4:55pm            276          1         11         43       55.8       33.7      29.63       0.08       0.00      0.000
5:00pm            258          1         11         42       55.8       33.1      29.63       0.08       0.00      0.000
5:05pm            290          0         10         42       55.9       33.2      29.63       0.08       0.00      0.000
5:10pm            251          1         13         42       56.1       33.3      29.63       0.08       0.00      0.000
5:15pm            273          0         16         40       56.3       32.3      29.63       0.08       0.00      0.000
5:20pm            270         10         17         39       56.4       31.8      29.64       0.08       0.00      0.000
5:25pm            276          2         17         39       56.4       31.8      29.64       0.08       0.00      0.000
5:30pm            272          6         17         38       56.3       31.0      29.64       0.08       0.00      0.000
5:35pm            283          0         15         39       56.2       31.6      29.64       0.08       0.00      0.000
5:40pm            290          7         15         37       56.2       30.3      29.65       0.08       0.00      0.000
5:45pm            276          0         15         36       56.2       29.6      29.66       0.08       0.00      0.000
5:50pm            287         11         16         34       56.2       28.2      29.66       0.08       0.00      0.000
5:55pm            277          0         16         34       56.2       28.2      29.66       0.08       0.00      0.000
6:00pm            299          0         16         34       56.1       28.1      29.67       0.08       0.00      0.000
6:05pm            277         14         14         34       56.0       28.0      29.68       0.08       0.00      0.000
6:10pm            259          0         17         34       55.9       28.0      29.67       0.08       0.00      0.000
6:15pm            293         15         17         35       55.5       28.3      29.68       0.08       0.00      0.000
6:20pm            347          0         15         36       54.8       28.4      29.68       0.08       0.00      0.000
6:25pm            292          2         16         36       54.4       28.0      29.68       0.08       0.00      0.000
6:30pm            302          0         16         36       54.3       27.9      29.69       0.08       0.00      0.000
6:35pm            292          2         11         37       54.1       28.4      29.69       0.08       0.00      0.000
6:40pm            274          0         13         36       54.0       27.7      29.69       0.08       0.00      0.000
6:45pm            294          1         15         36       54.0       27.7      29.70       0.08       0.00      0.000
6:50pm            326          1         12         36       53.8       27.5      29.71       0.08       0.00      0.000
6:55pm            324          0         16         36       53.3       27.0      29.71       0.08       0.00      0.000
7:00pm            318          0         16         37       53.0       27.4      29.72       0.08       0.00      0.000
7:05pm            293          1         10         36       52.8       26.6      29.72       0.08       0.00      0.000
7:10pm            292          0         10         37       52.7       27.2      29.72       0.08       0.00      0.000
7:15pm            326          2         11         36       52.6       26.4      29.72       0.08       0.00      0.000
7:20pm            326          0          7         37       52.4       26.9      29.73       0.08       0.00      0.000
7:25pm            292          0          7         37       52.3       26.8      29.73       0.08       0.00      0.000
7:30pm            330          2          9         37       52.2       26.7      29.73       0.08       0.00      0.000
7:35pm            318          1         10         36       52.1       26.0      29.74       0.08       0.00      0.000
7:40pm            297          0         10         35       52.1       25.3      29.74       0.08       0.00      0.000
7:45pm            303          0         10         35       52.0       25.2      29.74       0.08       0.00      0.000
7:50pm            316          0          8         34       51.9       24.4      29.74       0.08       0.00      0.000